Location: Zilina
(49.2167°N, 18.7333°E)
Time: 15:51:28
(UTC+02:00)

ISS - Pass Details

Date: 26 September 2018
Orbit: 403 x 408 km, 51.6° (Epoch: 16 October)

Event Time Altitude Azimuth Distance (km) Brightness Sun altitude
Rises 20:08:23 0° 248° (WSW) 2,333 0.9 -15.9°
Reaches altitude 10° 20:10:28 10° 249° (WSW) 1,473 -0.2 -16.2°
Maximum altitude 20:13:46 87° 164° (SSE) 415 -3.9 -16.8°
Enters shadow 20:14:43 44° 73° (ENE) 581 -3.5 -16.9°
